Weather History for KHPN - March, 2014

Change the Weather History Date:

Sunday, March 23, 2014

  Actual Average Record
Temperature  
Mean Temperature 33 °F -  
Max Temperature 39 °F 47 °F 72 °F (2012)
Min Temperature 25 °F 31 °F 16 °F (2004)
Degree Days  
Heating Degree Days 32    
Moisture  
Dew Point 15 °F    
Average Humidity 44    
Maximum Humidity 59    
Minimum Humidity 30    
Precipitation  
Precipitation 0.00 in - - ()
Sea Level Pressure  
Sea Level Pressure 30.02 in    
Wind  
Wind Speed 10 mph (NW)    
Max Wind Speed 20 mph    
Max Gust Speed 26 mph    
Visibility 10 miles    
Events      
Averages and records for this station are not official NWS values.
T = Trace of Precipitation, MM = Missing Value Source: NWS Daily Summary

Daily Weather History Graph

Daily Weather History Graph

Search for Another Location

Airport or City:

Trip Planner

Search our weather history database for the weather conditions in past years. The results will help you decide how hot, cold, wet, or windy it might be!

Date:

Astronomy

Mar. 23, 2014 Rise Set
Actual Time 6:53 AM EDT 7:10 PM EDT
Civil Twilight 6:25 AM EDT 7:37 PM EDT
Nautical Twilight 5:53 AM EDT 8:10 PM EDT
Astronomical Twilight 5:20 AM EDT 8:43 PM EDT
Moon 1:27 AM EDT (3/23) 11:29 AM EDT (3/23)
Length of Visible Light 13h 11m
Length of Day
12h 16m
Waning Gibbous, 55% of the Moon is Illuminated
Mar 23
Waning Gibbous
Mar 23
Last Quarter
Mar 30
New
Apr 7
First Quarter
Apr 15
Full

Hourly Weather History & Observations

Time (EDT) Temp. Windchill Dew Point Humidity Pressure Visibility Wind Dir Wind Speed Gust Speed Precip Events Conditions
12:56 AM 35.1 °F - 21.9 °F 59% 29.99 in 10.0 mi Calm Calm - N/A   Clear
1:56 AM 37.9 °F 30.9 °F 21.9 °F 53% 30.00 in 10.0 mi NW 10.4 mph - N/A   Clear
2:56 AM 37.0 °F 31.0 °F 21.9 °F 54% 29.99 in 10.0 mi WNW 8.1 mph - N/A   Clear
3:56 AM 37.0 °F 30.4 °F 21.9 °F 54% 29.99 in 10.0 mi WNW 9.2 mph - N/A   Clear
4:56 AM 36.0 °F 29.0 °F 21.0 °F 55% 29.99 in 10.0 mi WNW 9.2 mph - N/A   Clear
5:56 AM 36.0 °F 29.0 °F 21.0 °F 55% 30.00 in 10.0 mi WNW 9.2 mph - N/A   Partly Cloudy
6:56 AM 35.1 °F 28.6 °F 21.0 °F 57% 30.02 in 10.0 mi WNW 8.1 mph - N/A   Mostly Cloudy
7:56 AM 36.0 °F 32.1 °F 19.9 °F 52% 30.03 in 10.0 mi WNW 4.6 mph - N/A   Mostly Cloudy
8:56 AM 37.0 °F 32.4 °F 19.9 °F 50% 30.04 in 10.0 mi WNW 5.8 mph - N/A   Mostly Cloudy
9:56 AM 37.0 °F 30.4 °F 21.0 °F 52% 30.06 in 10.0 mi WNW 9.2 mph - N/A   Mostly Cloudy
10:56 AM 37.9 °F 29.2 °F 19.9 °F 48% 30.04 in 10.0 mi NW 15.0 mph 20.7 mph N/A   Mostly Cloudy
11:56 AM 39.9 °F 31.4 °F 19.0 °F 43% 30.04 in 10.0 mi NW 16.1 mph - N/A   Mostly Cloudy
12:56 PM 37.9 °F 29.6 °F 12.9 °F 36% 30.02 in 10.0 mi WNW 13.8 mph 23.0 mph N/A   Overcast
1:56 PM 39.0 °F 30.6 °F 10.9 °F 32% 30.00 in 10.0 mi NW 15.0 mph - N/A   Mostly Cloudy
2:56 PM 39.0 °F 30.3 °F 10.0 °F 30% 29.99 in 10.0 mi WNW 16.1 mph 24.2 mph N/A   Mostly Cloudy
3:56 PM 37.0 °F 27.7 °F 10.9 °F 34% 29.97 in 10.0 mi WNW 16.1 mph 23.0 mph N/A   Mostly Cloudy
4:56 PM 37.0 °F 27.0 °F 12.0 °F 36% 29.98 in 10.0 mi WNW 18.4 mph - N/A   Mostly Cloudy
5:56 PM 36.0 °F 25.3 °F 10.9 °F 36% 29.98 in 10.0 mi WNW 19.6 mph 26.5 mph N/A   Mostly Cloudy
6:56 PM 35.1 °F 25.2 °F 8.1 °F 33% 30.00 in 10.0 mi NW 16.1 mph - N/A   Overcast
7:56 PM 32.0 °F 21.6 °F 8.1 °F 37% 30.03 in 10.0 mi NNW 15.0 mph - N/A   Mostly Cloudy
8:56 PM 30.9 °F 19.8 °F 7.0 °F 37% 30.06 in 10.0 mi NNW 16.1 mph - N/A   Clear
9:56 PM 28.0 °F 16.5 °F 5.0 °F 38% 30.08 in 10.0 mi NNW 15.0 mph 24.2 mph N/A   Clear
10:56 PM 27.0 °F 15.2 °F 5.0 °F 39% 30.09 in 10.0 mi NNW 15.0 mph - N/A   Clear
11:56 PM 25.0 °F 11.7 °F 3.9 °F 41% 30.11 in 10.0 mi North 17.3 mph - N/A   Clear